This is the latest recevied weather packets stored in our database for station/object KB3VSP. If no packets are shown the sender has not sent any weather packets the latest 10 day(s).
| Time | Temp. | Humidity | Pressure | Rain* | Wind** | Luminosity | Snow |
|---|---|---|---|---|---|---|---|
| 1777920668 | 20.56° C | 52% | 1008.2 hPa | 0 mm | - | 467 W/m² | - |
| 1777920363 | 20.56° C | 52% | 1008.4 hPa | 0 mm | - | 152 W/m² | - |
| 1777920058 | 21.11° C | 51% | 1008.2 hPa | 0 mm | - | 119 W/m² | - |
| 1777919756 | 20.56° C | 50% | 1008.3 hPa | 0 mm | - | 669 W/m² | - |
| 1777919454 | 20.56° C | 51% | 1008.4 hPa | 0 mm | - | 271 W/m² | - |
| 1777919150 | 21.11° C | 50% | 1008.3 hPa | 0 mm | - | 164 W/m² | - |
| 1777918848 | 20.56° C | 50% | 1008.6 hPa | 0 mm | - | 379 W/m² | - |
| 1777918545 | 20.56° C | 50% | 1008.5 hPa | 0 mm | - | 699 W/m² | - |
| 1777918243 | 21.67° C | 49% | 1008.5 hPa | 0 mm | - | 469 W/m² | - |
| 1777917942 | 21.11° C | 50% | 1008.5 hPa | 0 mm | - | 686 W/m² | - |
| 1777917640 | 21.11° C | 49% | 1008.5 hPa | 0 mm | - | 706 W/m² | - |
| 1777917337 | 20.56° C | 50% | 1008.6 hPa | 0 mm | - | 732 W/m² | - |
| 1777917034 | 20.56° C | 50% | 1008.9 hPa | 0 mm | - | 773 W/m² | - |
| 1777916732 | 20.56° C | 49% | 1009 hPa | 0 mm | - | 709 W/m² | - |
| 1777916428 | 20.56° C | 50% | 1008.6 hPa | 0 mm | - | 636 W/m² | - |
| 1777916125 | 20° C | 51% | 1008.5 hPa | 0 mm | - | 706 W/m² | - |
| 1777915823 | 20° C | 50% | 1009 hPa | 0 mm | - | 718 W/m² | - |
| 1777915519 | 20° C | 50% | 1008.9 hPa | 0 mm | - | 774 W/m² | - |
| 1777915215 | 20° C | 50% | 1009 hPa | 0 mm | - | 764 W/m² | - |
| 1777914912 | 20° C | 51% | 1009 hPa | 0 mm | - | 767 W/m² | - |
| 1777914609 | 20° C | 50% | 1009.4 hPa | 0 mm | - | 575 W/m² | - |
| 1777914305 | 19.44° C | 51% | 1009 hPa | 0 mm | - | 650 W/m² | - |
| 1777914003 | 19.44° C | 51% | 1009.4 hPa | 0 mm | - | 277 W/m² | - |
| 1777913699 | 20° C | 52% | 1009.5 hPa | 0 mm | - | 738 W/m² | - |
| 1777913395 | 20° C | 50% | 1009.5 hPa | 0 mm | - | 754 W/m² | - |
* Rain latest hour (hover to see other rain measurements)
** Current wind speed in m/s (hover to see current wind gust speed)